FW6216 Weather Reports


Display with metric or nautical units.
time (UTC)temp
F
wind
direction
speed
MPH
gust
MPH
rain 1hr
in
rain 24hr
in
rain mn
in
humidity
%
barometer
mb
20260831133032 48 202 0.0 0.0 0.00 0.00 0.00 78 1017.1
20260831131531 48 202 0.0 0.0 0.00 0.00 0.00 77 1017.1
20260831130035 48 163 0.0 0.0 0.00 0.00 0.00 76 1017.1
20260831124530 49 157 0.0 0.0 0.00 0.00 0.00 74 1017.1
20260831123028 50 157 1.0 4.0 0.00 0.00 0.00 74 1017.1
20260831121535 50 239 0.0 4.0 0.00 0.00 0.00 75 1017.1
20260831120034 49 247 0.0 0.0 0.00 0.00 0.00 75 1017.1
20260831114535 49 247 0.0 0.0 0.00 0.00 0.00 75 1017.2
20260831113150 48 247 0.0 2.0 0.00 0.00 0.00 74 1017.2
20260831111535 49 247 0.0 2.0 0.00 0.00 0.00 74 1017.1
20260831110107 49 247 0.0 0.0 0.00 0.00 0.00 73 1017.1
20260831103140 50 247 0.0 3.0 0.00 0.00 0.00 71 1017.1
20260831100034 50 270 0.0 0.0 0.00 0.00 0.00 71 1017.4
20260831094533 50 255 0.0 2.0 0.00 0.00 0.00 70 1017.5
20260831091533 51 192 0.0 2.0 0.00 0.00 0.00 70 1017.7
20260831090035 51 247 0.0 0.0 0.00 0.00 0.00 70 1017.8
20260831084535 51 247 0.0 0.0 0.00 0.00 0.00 70 1017.9
20260831083044 51 247 0.0 0.0 0.00 0.00 0.00 69 1017.9
20260831081530 51 247 0.0 0.0 0.00 0.00 0.00 68 1018.0
20260831080031 51 247 0.0 3.0 0.00 0.00 0.00 69 1018.0
20260831074534 51 247 0.0 2.0 0.00 0.00 0.00 68 1018.1
20260831073035 51 247 0.0 3.0 0.00 0.00 0.00 68 1018.1
20260831071532 51 247 0.0 4.0 0.00 0.00 0.00 68 1018.2
20260831070143 52 247 0.0 3.0 0.00 0.00 0.00 66 1018.2
20260831063148 53 234 0.0 4.0 0.00 0.00 0.00 66 1018.4
20260831061532 54 225 0.0 2.0 0.00 0.00 0.00 64 1018.4
20260831060033 55 218 0.0 3.0 0.00 0.00 0.00 64 1018.4
20260831054530 55 247 0.0 1.0 0.00 0.00 0.00 62 1018.5
20260831053034 57 247 1.0 3.0 0.00 0.00 0.00 60 1018.5
20260831051529 58 219 0.0 3.0 0.00 0.00 0.00 59 1018.5
20260831050031 58 170 2.0 3.0 0.00 0.00 0.00 59 1018.6
20260831044529 58 157 3.0 5.0 0.00 0.00 0.00 58 1018.6
20260831041537 59 157 1.0 4.0 0.00 0.00 0.00 56 1018.5
20260831034529 62 196 0.0 0.0 0.00 0.00 0.00 54 1018.3
20260831031649 62 35 2.0 4.0 0.00 0.00 0.00 53 1018.1
20260831030030 62 10 3.0 6.0 0.00 0.00 0.00 52 1018.0
20260831024535 63 2 3.0 5.0 0.00 0.00 0.00 51 1017.9
20260831021530 67 12 4.0 8.0 0.00 0.00 0.00 45 1017.8
20260831020109 69 358 4.0 9.0 0.00 0.00 0.00 43 1017.8
20260831014535 70 347 6.0 11.0 0.00 0.00 0.00 41 1017.8
20260831013034 71 340 6.0 9.0 0.00 0.00 0.00 40 1017.9
20260831011535 73 350 6.0 9.0 0.00 0.00 0.00 39 1017.7
20260831010031 74 1 5.0 11.0 0.00 0.00 0.00 39 1017.9
20260831004531 74 5 4.0 9.0 0.00 0.00 0.00 40 1017.9
20260831000032 74 3 2.0 8.0 0.00 0.00 0.00 39 1018.1
20260830234532 75 18 3.0 9.0 0.00 0.00 0.00 39 1018.2
20260830233035 75 29 2.0 7.0 0.00 0.00 0.00 39 1018.4
20260830231534 75 9 4.0 9.0 0.00 0.00 0.00 40 1018.5
20260830230031 73 360 3.0 7.0 0.00 0.00 0.00 41 1018.7
20260830224536 73 337 4.0 10.0 0.00 0.00 0.00 42 1019.0
20260830223035 72 353 4.0 10.0 0.00 0.00 0.00 43 1019.1
20260830221552 72 25 7.0 15.0 0.00 0.00 0.00 43 1019.2
20260830220031 72 6 6.0 13.0 0.00 0.00 0.00 44 1019.4
20260830214534 72 5 6.0 12.0 0.00 0.00 0.00 44 1019.6
20260830213031 72 8 5.0 13.0 0.00 0.00 0.00 44 1019.7
20260830211530 72 9 5.0 12.0 0.00 0.00 0.00 44 1019.7
20260830210030 72 11 5.0 12.0 0.00 0.00 0.00 43 1019.8
20260830204533 73 340 5.0 8.0 0.00 0.00 0.00 42 1019.9
20260830203030 73 25 5.0 13.0 0.00 0.00 0.00 41 1020.1
20260830201531 73 5 5.0 11.0 0.00 0.00 0.00 40 1020.1
20260830200037 72 8 4.0 10.0 0.00 0.00 0.00 41 1020.2
20260830194530 72 359 1.0 9.0 0.00 0.00 0.00 40 1020.4
20260830193032 70 189 1.0 5.0 0.00 0.00 0.00 41 1020.7
20260830191530 70 254 3.0 8.0 0.00 0.00 0.00 41 1020.8
20260830190032 70 138 4.0 11.0 0.00 0.00 0.00 42 1021.0
20260830184529 69 157 2.0 10.0 0.00 0.00 0.00 44 1021.1
20260830183106 68 204 1.0 7.0 0.00 0.00 0.00 45 1021.3
20260830181529 67 255 1.0 4.0 0.00 0.00 0.00 47 1021.4
20260830180030 66 218 2.0 6.0 0.00 0.00 0.00 48 1021.4
20260830174535 65 212 1.0 5.0 0.00 0.00 0.00 50 1021.5
20260830171529 65 48 1.0 6.0 0.00 0.00 0.00 54 1021.7
20260830170034 65 61 1.0 6.0 0.00 0.00 0.00 55 1021.8
20260830163149 63 26 1.0 5.0 0.00 0.00 0.00 60 1022.2
20260830161644 61 16 0.0 2.0 0.00 0.00 0.00 64 1022.4
20260830160036 59 12 0.0 3.0 0.00 0.00 0.00 68 1022.4
20260830154535 56 22 1.0 3.0 0.00 0.00 0.00 74 1022.5
20260830153031 54 22 0.0 2.0 0.00 0.00 0.00 78 1022.7
20260830151649 51 99 0.0 3.0 0.00 0.00 0.00 80 1022.7
20260830150029 48 157 0.0 0.0 0.00 0.00 0.00 82 1022.6
20260830143036 45 145 0.0 1.0 0.00 0.00 0.00 83 1022.5
20260830141535 44 168 1.0 5.0 0.00 0.00 0.00 84 1022.4
20260830140034 43 287 2.0 6.0 0.00 0.00 0.00 84 1022.3
20260830134529 43 343 0.0 2.0 0.00 0.00 0.00 84 1022.2